DAL1931 MYNN-KATL

Flight info

Callsign DAL1931
Flight time N/A
Altitude 28000
Route PEACH Y421 OCTAL Q77 SHRKS DCT LAIRI DCT LARZZ JJEDI4
Aircraft B738/M-SDE2E3FGHIRWXY/LB1

Departure

Time 2026-05-04 13:52
Airport Lynden Pindling International Airport (MYNN)

Arrival

Time N/A
Airport Hartsfield Jackson Atlanta International Airport (KATL)
Time Latitude Longitude Altitude Speed Heading
2026-05-04 13:28 25.04808 -77.46735 22 ft 0 kts 313°
2026-05-04 13:43 25.04802 -77.46728 22 ft 4 kts 297°
2026-05-04 13:44 25.04793 -77.46712 26 ft 4 kts 314°
2026-05-04 13:44 25.04775 -77.46690 26 ft 4 kts 295°
2026-05-04 13:44 25.04774 -77.46672 22 ft 1 kts 227°
2026-05-04 13:44 25.04777 -77.46668 26 ft 1 kts 227°
2026-05-04 13:47 25.04776 -77.46670 26 ft 2 kts 227°
2026-05-04 13:47 25.04754 -77.46697 22 ft 6 kts 227°
2026-05-04 13:48 25.04727 -77.46728 23 ft 6 kts 227°
2026-05-04 13:48 25.04714 -77.46745 23 ft 0 kts 227°
2026-05-04 13:48 25.04712 -77.46768 22 ft 8 kts 271°
2026-05-04 13:48 25.04741 -77.46816 22 ft 8 kts 320°
2026-05-04 13:49 25.04780 -77.46854 24 ft 7 kts 316°
2026-05-04 13:49 25.04807 -77.46882 22 ft 11 kts 318°
2026-05-04 13:49 25.04873 -77.46947 23 ft 13 kts 316°
2026-05-04 13:49 25.04950 -77.47044 21 ft 12 kts 313°
2026-05-04 13:50 25.05011 -77.47110 24 ft 12 kts 316°
2026-05-04 13:50 25.05070 -77.47176 24 ft 12 kts 313°
2026-05-04 13:50 25.05126 -77.47242 21 ft 12 kts 315°
2026-05-04 13:50 25.05187 -77.47313 21 ft 16 kts 314°
2026-05-04 13:51 25.05231 -77.47375 22 ft 12 kts 287°
2026-05-04 13:51 25.05215 -77.47465 22 ft 12 kts 252°
2026-05-04 13:51 25.05179 -77.47531 22 ft 4 kts 200°
2026-05-04 13:51 25.05154 -77.47530 23 ft 6 kts 161°
2026-05-04 13:52 25.04489 -77.46795 23 ft 154 kts 136°
2026-05-04 13:52 25.03584 -77.45783 299 ft 209 kts 138°
2026-05-04 13:52 25.02493 -77.44585 978 ft 232 kts 139°
2026-05-04 13:53 25.01298 -77.43356 1837 ft 237 kts 140°
2026-05-04 13:53 25.00091 -77.42082 2507 ft 241 kts 132°
2026-05-04 13:53 24.99280 -77.40437 3111 ft 255 kts 110°
2026-05-04 13:54 24.99249 -77.36377 3559 ft 264 kts 69°
2026-05-04 13:54 25.00208 -77.34662 4280 ft 265 kts 45°
2026-05-04 13:54 25.03490 -77.32937 5704 ft 272 kts
2026-05-04 13:55 25.05372 -77.33183 6484 ft 275 kts 339°
2026-05-04 13:55 25.08328 -77.35646 7900 ft 269 kts 301°
2026-05-04 13:55 25.09277 -77.37418 8648 ft 268 kts 297°
2026-05-04 13:56 25.10165 -77.39221 9456 ft 268 kts 297°
2026-05-04 13:56 25.11066 -77.41055 10234 ft 275 kts 296°
2026-05-04 13:56 25.13036 -77.45090 10736 ft 324 kts 296°
2026-05-04 13:57 25.14135 -77.47358 10964 ft 344 kts 296°
2026-05-04 13:57 25.15146 -77.49772 11603 ft 348 kts 291°
2026-05-04 13:58 25.18801 -77.56820 13613 ft 362 kts 308°
2026-05-04 13:58 25.22472 -77.60630 14866 ft 368 kts 317°
2026-05-04 13:58 25.24492 -77.62374 15503 ft 369 kts 319°
2026-05-04 13:59 25.26556 -77.64069 16151 ft 371 kts 319°
2026-05-04 13:59 25.28639 -77.65745 16810 ft 371 kts 319°
2026-05-04 13:59 25.32818 -77.69092 18176 ft 371 kts 319°
2026-05-04 14:00 25.34905 -77.70769 18794 ft 371 kts 319°
2026-05-04 14:00 25.39070 -77.74125 20040 ft 369 kts 319°
2026-05-04 14:00 25.41144 -77.75798 20679 ft 369 kts 318°
2026-05-04 14:01 25.43093 -77.77601 21314 ft 362 kts 306°
2026-05-04 14:01 25.44539 -77.79832 21993 ft 355 kts 298°
2026-05-04 14:01 25.47080 -77.84427 23359 ft 350 kts 297°
2026-05-04 14:02 25.48331 -77.86732 23983 ft 348 kts 297°
2026-05-04 14:02 25.49576 -77.89015 24576 ft 345 kts 297°
2026-05-04 14:02 25.50819 -77.91281 25189 ft 343 kts 297°
2026-05-04 14:02 25.52056 -77.93525 25809 ft 340 kts 297°
2026-05-04 14:03 25.53283 -77.95743 26448 ft 336 kts 297°
2026-05-04 14:03 25.54499 -77.97939 27102 ft 332 kts 297°
2026-05-04 14:03 25.55702 -78.00108 27740 ft 329 kts 296°
2026-05-04 14:03 25.56910 -78.02292 27963 ft 338 kts 296°
2026-05-04 14:04 25.59441 -78.06874 28012 ft 360 kts 297°
2026-05-04 14:04 25.65926 -78.18605 28069 ft 400 kts 297°
2026-05-04 14:05 25.78182 -78.40806 27999 ft 433 kts 297°
2026-05-04 14:05 25.84355 -78.52030 27968 ft 428 kts 297°
2026-05-04 14:05 25.90450 -78.63152 27961 ft 415 kts 297°
2026-05-04 14:06 25.93235 -78.75273 27982 ft 403 kts 266°
2026-05-04 14:06 25.92938 -78.94906 28004 ft 413 kts 270°
2026-05-04 14:06 25.92938 -79.01314 27998 ft 416 kts 270°
2026-05-04 14:07 25.92911 -79.07765 27991 ft 417 kts 270°
2026-05-04 14:07 25.92871 -79.14164 27984 ft 412 kts 270°
2026-05-04 14:07 25.92827 -79.20464 27989 ft 406 kts 270°
2026-05-04 14:08 25.92641 -79.44601 28008 ft 405 kts 270°
2026-05-04 14:08 25.92403 -79.70042 28010 ft 418 kts 270°
2026-05-04 14:08 25.94003 -79.82707 28000 ft 417 kts 291°
2026-05-04 14:09 26.06126 -80.04198 28005 ft 407 kts 298°
2026-05-04 14:10 26.32600 -80.27962 28041 ft 447 kts 332°
2026-05-04 14:10 26.55540 -80.38106 27997 ft 436 kts 331°
2026-05-04 14:11 26.77861 -80.48009 28051 ft 433 kts 331°
2026-05-04 14:11 26.94915 -80.55611 28046 ft 444 kts 332°